Regional Weather Roundup
Issued by NWS

Home | Current Version | Previous Version | Text Only | Print | Product List | Glossary On
Versions: 1 2 3 4 5 6 7 8 9 10 11 12 13 14 15 16 17 18 19 20 21 22 23 24 25 26 27 28 29 30 31 32 33 34 35 36 37 38 39 40 41 42 43 44 45 46 47 48 49 50
000
ASUS43 KLMK 202102
RWRKY
KENTUCKY REGIONAL WEATHER ROUNDUP
NATIONAL WEATHER SERVICE LOUISVILLE KY
400 PM EST THU NOV 20 2014

NOTE "FAIR" INDICATES FEW OR NO CLOUDS BELOW 12,000 FEET
WITH NO SIGNIFICANT WEATHER AND/OR OBSTRUCTIONS TO VISIBILITY.

KYZ001>023-026-027-061>063-070>075-202200-
WESTERN AND SOUTH CENTRAL KENTUCKY

CITY           SKY/WX    TMP DP  RH WIND       PRES   REMARKS
PADUCAH        SUNNY     42  22  44 W7        30.22F
HENDERSON      SUNNY     36  19  51 W8        30.22S WCI  29
OWENSBORO      SUNNY     35  20  55 W14       30.23S WCI  26
HOPKINSVILLE   NOT AVBL
BOWLING GREEN  SUNNY     42  18  37 SW10      30.20F
GLASGOW        NOT AVBL
$$

KYZ024-025-028>034-038-045-046-053-202200-
NORTH CENTRAL KENTUCKY

CITY           SKY/WX    TMP DP  RH WIND       PRES   REMARKS
LOUISVILLE/SDF SUNNY     35  16  45 SW9       30.19S WCI  28
LOUISVILLE/LOU SUNNY     33  16  49 SW7G17    30.20S WCI  27
FORT KNOX      SUNNY     34  17  51 SW10      30.17S WCI  26
$$

KYZ035>037-039>044-047>052-055>060-089>105-202200-
NORTHEAST KENTUCKY

CITY           SKY/WX    TMP DP  RH WIND       PRES   REMARKS
LEXINGTON      SUNNY     33  17  51 W12       30.16S WCI  24
COVINGTON      MOSUNNY   31  13  47 SW9       30.13S WCI  23
FRANKFORT      SUNNY     32  16  51 W10       30.16S WCI  24
$$

KYZ054-064>069-076>088-106>120-202200-
SOUTHEAST KENTUCKY

CITY           SKY/WX    TMP DP  RH WIND       PRES   REMARKS
JACKSON        SUNNY     39  17  41 W7        30.10S WCI  34
LONDON         SUNNY     43  16  33 W13       30.14S
SOMERSET       SUNNY     39  18  41 W13       30.18S WCI  32
MIDDLESBORO    SUNNY     47  23  39 NW9       30.13R
MONTICELLO     CLEAR     44  17  34 W9        30.20S
$$



USA.gov is the U.S. government's official web portal to all federal, state and local government web resources and services.